Location: Go�ngahuizen
(53.0821°N, 5.8849°E)
Time: 22:36:23
(UTC+00:00)

Cosmos 2369 - Pass Details

Date: 09 April 2020
Orbit: 840 x 855 km, 71.0° (Epoch: 23 May)

Event Time Altitude Azimuth Distance (km) Brightness Sun altitude
Rises 21:04:51 0° 327° (NNW) 3,408 8.4 -20.8°
Reaches altitude 10° 21:07:19 10° 326° (NW) 2,469 7.3 -21.1°
Maximum altitude 21:12:57 74° 243° (WSW) 879 3.7 -21.6°
Enters shadow 21:14:49 43° 169° (S) 1,165 4.0 -21.8°
